Oak Ridge, TN

3:33 PM EST on February 24, 2017 (GMT -0500)
Oak Ridge

Weather History for KOQT - September, 2013

Change the Weather History Date:

Sunday, September 8, 2013

  Actual Average (KTYS) Record (KTYS)
Temperature  
Mean Temperature 76 °F -  
Max Temperature 88 °F 84 °F 96 °F (1925)
Min Temperature 66 °F 63 °F 46 °F (1984)
Cooling Degree Days 12    
Growing Degree Days 26 (Base 50)    
Moisture  
Dew Point 67 °F    
Average Humidity 81    
Maximum Humidity 100    
Minimum Humidity 49    
Precipitation  
Precipitation 0.00 in - - ()
Sea Level Pressure  
Sea Level Pressure 30.00 in    
Wind  
Wind Speed 0 mph (East)    
Max Wind Speed 5 mph    
Max Gust Speed -    
Visibility 8 miles    
Events Fog    
Averages and records for this station are not official NWS values.
T = Trace of Precipitation, MM = Missing Value Source: NWS Daily Summary

Daily Weather History Graph

Daily Weather History Graph

Search for Another Location

Airport or City:

Trip Planner

Search our weather history database for the weather conditions in past years. The results will help you decide how hot, cold, wet, or windy it might be!

Date:

Astronomy

Sep. 08, 2013 Rise Set
Actual Time 7:14 AM EDT 7:54 PM EDT
Civil Twilight 6:48 AM EDT 8:19 PM EDT
Nautical Twilight 6:17 AM EDT 8:50 PM EDT
Astronomical Twilight 5:46 AM EDT 9:21 PM EDT
Moon 10:22 AM EDT (9/8) 9:37 PM EDT (9/8)
Length of Visible Light 13h 31m
Length of Day
12h 39m
Waxing Crescent, 11% of the Moon is Illuminated
Sep 8
Waxing Crescent
Sep 12
First Quarter
Sep 19
Full
Sep 26
Last Quarter
Oct 4
New

Hourly Weather History & Observations

Time (EDT) Temp. Heat Index Dew Point Humidity Pressure Visibility Wind Dir Wind Speed Gust Speed Precip Events Conditions
12:53 AM 72.0 °F - 69.1 °F 91% 30.01 in 9.0 mi Calm Calm - N/A   Clear
1:53 AM 71.1 °F - 68.0 °F 90% 29.99 in 10.0 mi Calm Calm - N/A   Clear
2:53 AM 69.1 °F - 66.9 °F 93% 29.99 in 8.0 mi Calm Calm - N/A   Clear
3:53 AM 68.0 °F - 66.0 °F 93% 29.99 in 7.0 mi Calm Calm - N/A   Clear
4:53 AM 68.0 °F - 66.0 °F 93% 29.98 in 8.0 mi Calm Calm - N/A   Mostly Cloudy
5:43 AM 68.0 °F - 66.2 °F 94% 30.03 in 6.0 mi Calm Calm - N/A   Scattered Clouds
5:53 AM 68.0 °F - 66.0 °F 93% 29.98 in 6.0 mi Calm Calm - N/A   Scattered Clouds
6:53 AM 66.9 °F - 66.0 °F 97% 30.00 in 6.0 mi Calm Calm - N/A   Scattered Clouds
7:00 AM 66.2 °F - 64.4 °F 94% 30.04 in 5.0 mi Calm Calm - N/A   Mostly Cloudy
7:29 AM 66.2 °F - 66.2 °F 100% 30.05 in 1.8 mi Calm Calm - N/A   Mostly Cloudy
7:39 AM 66.2 °F - 66.2 °F 100% 30.05 in 0.2 mi Calm Calm - N/A Fog Fog
7:48 AM 66.2 °F - 66.2 °F 100% 30.05 in 2.0 mi Calm Calm - N/A   Overcast
7:53 AM 68.0 °F - 66.0 °F 93% 30.01 in 3.0 mi Calm Calm - N/A   Overcast
8:51 AM 69.8 °F - 66.2 °F 88% 30.04 in 8.0 mi Calm Calm - N/A   Scattered Clouds
8:53 AM 70.0 °F - 66.9 °F 90% 30.00 in 8.0 mi Calm Calm - N/A   Partly Cloudy
9:53 AM 73.9 °F - 68.0 °F 82% 30.01 in 10.0 mi Calm Calm - N/A   Clear
10:53 AM 78.1 °F - 68.0 °F 71% 30.01 in 10.0 mi Calm Calm - N/A   Partly Cloudy
11:53 AM 82.9 °F 85.4 °F 66.9 °F 58% 30.00 in 10.0 mi Calm Calm - N/A   Clear
12:53 PM 82.0 °F 84.9 °F 68.0 °F 62% 30.00 in 10.0 mi East 4.6 mph - N/A   Scattered Clouds
1:53 PM 82.0 °F 84.9 °F 68.0 °F 62% 29.99 in 10.0 mi Variable 4.6 mph - 0.00 in   Overcast
2:53 PM 87.1 °F 89.2 °F 66.0 °F 49% 29.97 in 10.0 mi Variable 3.5 mph - N/A   Clear
3:53 PM 86.0 °F 88.2 °F 66.0 °F 51% 29.96 in 10.0 mi Calm Calm - N/A   Partly Cloudy
4:53 PM 86.0 °F 88.2 °F 66.0 °F 51% 29.96 in 10.0 mi Calm Calm - N/A   Scattered Clouds
5:53 PM 86.0 °F 88.2 °F 66.0 °F 51% 29.95 in 10.0 mi Calm Calm - N/A   Clear
6:53 PM 84.0 °F 86.5 °F 66.9 °F 56% 29.94 in 10.0 mi Calm Calm - N/A   Clear
7:53 PM 80.1 °F 83.2 °F 70.0 °F 71% 29.96 in 10.0 mi Calm Calm - N/A   Clear
8:53 PM 77.0 °F - 71.1 °F 82% 29.97 in 10.0 mi Calm Calm - N/A   Clear
9:53 PM 73.9 °F - 69.1 °F 85% 29.98 in 9.0 mi Calm Calm - N/A   Clear
10:53 PM 73.0 °F - 70.0 °F 90% 29.99 in 7.0 mi Calm Calm - N/A   Clear
11:53 PM 72.0 °F - 70.0 °F 93% 30.00 in 6.0 mi Calm Calm - N/A   Clear